Saint Johns, AZ

10:34 PM MST on February 24, 2017 (GMT -0700)
Saint Johns Industrial

Weather History for KSJN - November, 2011

Change the Weather History Date:

Tuesday, November 1, 2011

  Actual Average (KLSB) Record (KLSB)
Temperature  
Mean Temperature 53 °F -  
Max Temperature 73 °F 71 °F 77 °F (2014)
Min Temperature 33 °F 35 °F 32 °F (2013)
Degree Days  
Heating Degree Days 12    
Growing Degree Days 3 (Base 50)    
Moisture  
Dew Point 18 °F    
Average Humidity 30    
Maximum Humidity 60    
Minimum Humidity 8    
Precipitation  
Precipitation 0.00 in - - ()
Sea Level Pressure  
Sea Level Pressure 29.90 in    
Wind  
Wind Speed 8 mph (SW)    
Max Wind Speed 24 mph    
Max Gust Speed 38 mph    
Visibility 10 miles    
Events      
Averages and records for this station are not official NWS values.
T = Trace of Precipitation, MM = Missing Value Source: NWS Daily Summary

Daily Weather History Graph

Daily Weather History Graph

Search for Another Location

Airport or City:

Trip Planner

Search our weather history database for the weather conditions in past years. The results will help you decide how hot, cold, wet, or windy it might be!

Date:

Astronomy

Nov. 01, 2011 Rise Set
Actual Time 6:37 AM MST 5:24 PM MST
Civil Twilight 6:11 AM MST 5:50 PM MST
Nautical Twilight 5:41 AM MST 6:19 PM MST
Astronomical Twilight 5:12 AM MST 6:49 PM MST
Moon 12:23 PM MST (11/1) 11:11 PM MST (11/1)
Length of Visible Light 11h 38m
Length of Day
10h 46m
Waxing Crescent, 41% of the Moon is Illuminated
Nov 1
Waxing Crescent
Nov 2
First Quarter
Nov 10
Full
Nov 18
Last Quarter
Nov 24
New

Hourly Weather History & Observations

Time (MST) Temp. Windchill Dew Point Humidity Pressure Visibility Wind Dir Wind Speed Gust Speed Precip Events Conditions
12:54 AM 43.0 °F 41.3 °F 21.9 °F 43% 29.94 in 10.0 mi South 3.5 mph - N/A   Clear
1:54 AM 39.9 °F 36.7 °F 21.9 °F 49% 29.93 in 10.0 mi SE 4.6 mph - N/A   Clear
2:54 AM 35.1 °F - 21.0 °F 57% 29.94 in 10.0 mi Calm Calm - N/A   Clear
3:54 AM 39.0 °F 34.8 °F 21.0 °F 49% 29.92 in 10.0 mi South 5.8 mph - N/A   Clear
4:54 AM 39.0 °F 36.8 °F 19.9 °F 46% 29.93 in 10.0 mi South 3.5 mph - N/A   Clear
5:54 AM 33.8 °F 30.8 °F 19.4 °F 56% 30.09 in 10.0 mi South 3.5 mph - N/A   Clear
6:54 AM 33.8 °F - 21.2 °F 60% 30.09 in 10.0 mi Calm Calm - N/A   Clear
7:54 AM 42.8 °F - 23.0 °F 46% 30.09 in 10.0 mi Calm Calm - N/A   Clear
8:54 AM 50.0 °F - 24.1 °F 36% 29.93 in 10.0 mi Calm Calm - N/A   Clear
9:54 AM 57.0 °F - 24.1 °F 28% 29.91 in 10.0 mi Calm Calm - N/A   Clear
10:54 AM 66.0 °F - 23.0 °F 20% 29.87 in 10.0 mi WNW 6.9 mph - N/A   Clear
11:54 AM 71.1 °F - 10.0 °F 9% 29.82 in 10.0 mi WSW 20.7 mph 27.6 mph N/A   Clear
12:54 PM 73.9 °F - 10.0 °F 9% 29.77 in 10.0 mi WSW 24.2 mph 32.2 mph N/A   Clear
1:54 PM 73.9 °F - 8.1 °F 8% 29.77 in 10.0 mi West 21.9 mph 32.2 mph N/A   Clear
2:54 PM 73.0 °F - 12.0 °F 10% 29.79 in 10.0 mi WSW 23.0 mph 38.0 mph N/A   Clear
3:54 PM 70.0 °F - 12.9 °F 11% 29.79 in 10.0 mi WSW 19.6 mph 29.9 mph N/A   Clear
4:54 PM 66.0 °F - 10.0 °F 11% 29.79 in 10.0 mi WSW 20.7 mph 29.9 mph N/A   Clear
5:54 PM 62.1 °F - 17.1 °F 18% 29.85 in 10.0 mi WSW 13.8 mph - N/A   Clear
6:54 PM 59.0 °F - 14.0 °F 17% 29.88 in 10.0 mi WSW 15.0 mph - N/A   Clear
7:54 PM 55.0 °F - 16.0 °F 22% 29.87 in 10.0 mi SW 10.4 mph - N/A   Clear
8:54 PM 54.0 °F - 18.0 °F 24% 29.88 in 10.0 mi WSW 10.4 mph - N/A   Clear
9:54 PM 53.1 °F - 18.0 °F 25% 29.87 in 10.0 mi WSW 13.8 mph - N/A   Clear
10:54 PM 53.1 °F - 17.1 °F 24% 29.83 in 10.0 mi SW 17.3 mph - N/A   Clear
11:28 PM 50.0 °F - 19.4 °F 30% 30.07 in 10.0 mi West 21.9 mph 28.8 mph N/A   Clear
11:54 PM 48.0 °F - 24.1 °F 39% 29.89 in 10.0 mi West 21.9 mph 27.6 mph N/A   Clear